Cosmos 1417 Rocket - Orbit

View from above orbital plane
View from above orbital plane
View from above satellite
View from above satellite

Ground track
Ground track

The orbit data is extracted from the following two-line orbital elements,

1 13618U 82102B   13138.16136876  .00000216  00000-0  20473-3 0  2515
2 13618 082.9653 163.4834 0031286 348.8093 073.9750 13.76596855536121
Epoch (UTC): 18 May 2013 03:52:22
Eccentricity: 0.0031286
inclination: 82.9653°
perigee height: 953 km
apogee height: 999 km
right ascension of ascending node: 163.4834°
argument of perigee: 348.8093°
revolutions per day: 13.76596855
mean anomaly at epoch: 73.9750°
orbit number at epoch: 53612

The dashed part of the orbit path shows where the satellite is in the earth's shadow,  

Developed and maintained by Chris Peat, Heavens-Above GmbH. Please read the updated FAQ before sending e-mail. Imprint. DLR